Kansas Department of Transportation
RWIS(Road and Runway Information System) Map and Weather Data





Station
Surface
Air
Wind
Site IDSensor TypeLocationTemperature (°F)Temperature (°F)Humidity (%)Speed (mi/h)Gusts (mi/h)DirectionTime
123002AtmosphericBonner Springs 455369SSWNov 20 2017 3:15AM
123002ApproachBonner Springs41     Nov 20 2017 3:15AM
123002DeckBonner Springs39     Nov 20 2017 3:15AM
123014AtmosphericBull Creek 454457SSENov 20 2017 3:15AM
123014DeckBull Creek39     Nov 20 2017 3:15AM
123014DepartureBull Creek41     Nov 20 2017 3:15AM
123015AtmosphericLeavenworth 4554712SWNov 20 2017 3:15AM
123015DeckLeavenworth41     Nov 20 2017 3:15AM
123015DepartureLeavenworth39     Nov 20 2017 3:15AM
123020AtmosphericMayetta 4142912SSWNov 20 2017 3:15AM
123020RoadwayMayetta39     Nov 20 2017 3:15AM
123020DeckMayetta36     Nov 20 2017 3:15AM
505000AtmosphericKTA 1 395014SSENov 20 2017 3:00AM
505000ApproachKTA 139     Nov 20 2017 3:00AM
505000DeckKTA 141     Nov 20 2017 3:00AM
505001AtmosphericKTA 2 434959SSWNov 20 2017 3:00AM
505001ApproachKTA 241     Nov 20 2017 3:00AM
505001DeckKTA 243     Nov 20 2017 3:00AM
505002AtmosphericKTA 3 395637SNov 20 2017 3:00AM
505002ApproachKTA 341     Nov 20 2017 3:00AM
505002DeckKTA 339     Nov 20 2017 3:00AM
505003AtmosphericKTA 4 4341711NNENov 20 2017 3:00AM
505003ApproachKTA 441     Nov 20 2017 3:00AM
505003DeckKTA 441     Nov 20 2017 3:00AM
505004AtmosphericKTA 5 4399912SWNov 20 2017 3:00AM
505004RoadwayKTA 541     Nov 20 2017 3:00AM
505004RoadwayKTA 541     Nov 20 2017 3:00AM
505005AtmosphericKTA 6 375346SSENov 20 2017 3:00AM
505005Approach KTA 639     Nov 20 2017 3:00AM
505005DeckKTA 637     Nov 20 2017 3:00AM
505006AtmosphericKTA 7 455359SSWNov 20 2017 3:00AM
505006ApproachKTA 7Unavailable     Nov 20 2017 3:00AM
505006DeckKTA 739     Nov 20 2017 3:00AM
505007AtmosphericKTA 8 4551713SWNov 20 2017 3:00AM
505007ApproachKTA 843     Nov 20 2017 3:00AM
505007DeckKTA 839     Nov 20 2017 3:00AM
505008AtmosphericKTA 9 461059SWNov 20 2017 3:00AM
505008ApproachKTA 943     Nov 20 2017 3:00AM
505008DeckKTA 943     Nov 20 2017 3:00AM
505009AtmosphericKTA 10 553649SSWNov 20 2017 3:00AM
505009ApproachKTA 1041     Nov 20 2017 3:00AM
505009DeckKTA 1039     Nov 20 2017 3:00AM
505010AtmosphericWebb 4543911SENov 20 2017 3:15AM
505010DeckWebb43     Nov 20 2017 3:15AM
505010NullWebb43     Nov 20 2017 3:15AM
505014AtmosphericI-135 4546713SSWNov 20 2017 3:15AM
505014ApproachI-13543     Nov 20 2017 3:15AM
505014DeckI-135Unavailable     Nov 20 2017 3:15AM
540000AtmosphericBlue Rapids 464149SWNov 20 2017 3:15AM
540000DeckBlue Rapids41     Nov 20 2017 3:15AM
540000DepartureBlue Rapids41     Nov 20 2017 3:15AM
540001AtmosphericSabetha 435257SWNov 20 2017 3:15AM
540001ApproachSabetha39     Nov 20 2017 3:15AM
540001DeckSabetha36     Nov 20 2017 3:15AM
540002AtmosphericWestgate 4636812SNov 20 2017 3:15AM
540002DeckWestgate43     Nov 20 2017 3:15AM
540002DepartureWestgate43     Nov 20 2017 3:15AM
540003AtmosphericEmporia 415869SSWNov 20 2017 3:15AM
540003ApproachEmporia39     Nov 20 2017 3:15AM
540003DeckEmporia37     Nov 20 2017 3:15AM
540005AtmosphericLawrence 4553510SSENov 20 2017 3:15AM
540005ApproachLawrenceUnavailable     Nov 20 2017 3:15AM
540005DeckLawrence93     Nov 20 2017 3:15AM
540006AtmosphericTroy      Nov 19 2017 5:20PM
540006DeckTroy      Nov 19 2017 5:20PM
540006DepartureTroy      Nov 19 2017 5:20PM
540007AtmosphericManhattan 483969SWNov 20 2017 3:15AM
540007DepartureManhattan43     Nov 20 2017 3:15AM
540007DeckManhattan43     Nov 20 2017 3:15AM
541001AtmosphericSyracuse 305889WNWNov 20 2017 3:15AM
541001Out of Service for WinterSyracuse32     Nov 20 2017 3:15AM
541001DeckSyracuse30     Nov 20 2017 3:15AM
541002AtmosphericLiberal 344714SENov 20 2017 3:15AM
541002ApproachLiberalUnavailable     Nov 20 2017 3:15AM
541002DeckLiberalUnavailable     Nov 20 2017 3:15AM
541003AtmosphericFord 363946SSWNov 20 2017 3:15AM
541003DeckFord37     Nov 20 2017 3:15AM
541003DepartureFord37     Nov 20 2017 3:15AM
541004AtmosphericScott 211223SENov 20 2017 3:15AM
541004DepartureScott30     Nov 20 2017 3:15AM
541007AtmosphericGarden City 345237SWNov 20 2017 3:15AM
541007ApproachGarden City30     Nov 20 2017 3:15AM
541007DeckGarden City36     Nov 20 2017 3:15AM
543000AtmosphericJunction City 4835410NNENov 20 2017 3:15AM
543000ApproachJunction City45     Nov 20 2017 3:15AM
543000DeckJunction City41     Nov 20 2017 3:15AM
543001AtmosphericEllsworth 43251316NNWNov 20 2017 3:15AM
543001RoadwayEllsworth39     Nov 20 2017 3:15AM
543003AtmosphericSalina 4523810NNov 20 2017 3:15AM
543003DepartureSalina43     Nov 20 2017 3:15AM
543003RoadwaySalina41     Nov 20 2017 3:15AM
543004AtmosphericConcordia 394734SSWNov 20 2017 3:15AM
543004ApproachConcordia39     Nov 20 2017 3:15AM
543004DeckConcordia36     Nov 20 2017 3:15AM
543005AtmosphericPeabody 3638611NNov 20 2017 3:15AM
543005ApproachPeabody41     Nov 20 2017 3:15AM
543005DeckPeabodyUnavailable     Nov 20 2017 3:15AM
560000AtmosphericEdson 363957WNWNov 20 2017 3:15AM
560000RoadwayEdson34     Nov 20 2017 3:15AM
560000RoadwayEdson32     Nov 20 2017 3:15AM
560001AtmosphericOakley 365024WSWNov 20 2017 3:15AM
560001ApproachOakley36     Nov 20 2017 3:15AM
560001DeckOakley34     Nov 20 2017 3:15AM
560002AtmosphericAtwood 345047SNov 20 2017 3:15AM
560002ApproachAtwood32     Nov 20 2017 3:15AM
560002DeckAtwood34     Nov 20 2017 3:15AM
560003AtmosphericJennings 287222WSWNov 20 2017 3:15AM
560003ApproachJennings32     Nov 20 2017 3:15AM
560003DeckJennings30     Nov 20 2017 3:15AM
560003DeckJennings30     Nov 20 2017 3:15AM
560004AtmosphericWakeeney 345725SSWNov 20 2017 3:15AM
560004ApproachWakeeney36     Nov 20 2017 3:15AM
560004DeckWakeeney34     Nov 20 2017 3:15AM
560005AtmosphericWalker 345366SWNov 20 2017 3:15AM
560005ApproachWalker36     Nov 20 2017 3:15AM
560005DeckWalker52     Nov 20 2017 3:15AM
560006AtmosphericBow Creek(Stockton) 374978SWNov 20 2017 3:15AM
560006ApproachBow Creek(Stockton)36     Nov 20 2017 3:15AM
560006DeckBow Creek(Stockton)34     Nov 20 2017 3:15AM
560007AtmosphericLebanon 325922SNov 20 2017 3:15AM
560007ApproachLebanon32     Nov 20 2017 3:15AM
560007DeckLebanon32     Nov 20 2017 3:15AM
560008AtmosphericWallace 255322WNov 20 2017 3:15AM
560008ApproachWallace32     Nov 20 2017 3:15AM
560008DeckWallace28     Nov 20 2017 3:15AM
572000AtmosphericGreat Bend 394878SWNov 20 2017 3:15AM
572000ApproachGreat Bend36     Nov 20 2017 3:15AM
572000DeckGreat Bend36     Nov 20 2017 3:15AM
572001AtmosphericPratt 321800WNWNov 20 2017 3:15AM
572001ApproachPratt36     Nov 20 2017 3:15AM
572001DeckPratt36     Nov 20 2017 3:15AM
572002AtmosphericAnthony 434926SSWNov 20 2017 3:15AM
572002ApproachAnthony41     Nov 20 2017 3:15AM
572002DeckAnthony39     Nov 20 2017 3:15AM
573000AtmosphericEureka 435038SSWNov 20 2017 3:15AM
573000DeckEurekaUnavailable     Nov 20 2017 3:15AM
573000DepartureEureka39     Nov 20 2017 3:15AM
573001AtmosphericGarnett 464949SSWNov 20 2017 3:15AM
573001ApproachGarnett41     Nov 20 2017 3:15AM
573001DeckGarnett39     Nov 20 2017 3:15AM
573002AtmosphericCaney 375512ENov 20 2017 3:15AM
573002RoadwayCaney39     Nov 20 2017 3:15AM
573003AtmosphericChetopa 396626SSENov 20 2017 3:15AM
573003DeckChetopa37     Nov 20 2017 3:15AM
573003DeckChetopa37     Nov 20 2017 3:15AM
573003DepartureChetopa39     Nov 20 2017 3:15AM
573004AtmosphericChanute 416037SSENov 20 2017 3:15AM
573004ApproachChanute41     Nov 20 2017 3:15AM
573004DeckChanute37     Nov 20 2017 3:15AM